Regional Weather Roundup
Issued by NWS

Current Version | Previous Version | Graphics & Text | Print | Product List | Glossary On
Versions: 1 2 3 4 5 6 7 8 9 10 11 12 13 14 15 16 17 18 19 20 21 22 23 24 25 26 27 28 29 30 31 32 33 34 35 36 37 38 39 40 41 42 43 44 45 46 47 48 49 50
000
ASUS43 KLMK 130510
RWRKY
KENTUCKY REGIONAL WEATHER ROUNDUP
NATIONAL WEATHER SERVICE LOUISVILLE KY
100 AM EDT MON JUL 13 2020

NOTE "FAIR" INDICATES FEW OR NO CLOUDS BELOW 12,000 FEET
WITH NO SIGNIFICANT WEATHER AND/OR OBSTRUCTIONS TO VISIBILITY.

KYZ001>023-026-027-061>063-070>075-130600-
WESTERN AND SOUTH CENTRAL KENTUCKY

CITY           SKY/WX    TMP DP  RH WIND       PRES   REMARKS
PADUCAH        CLEAR     70  67  90 CALM      29.89R
HENDERSON      CLEAR     68  67  96 CALM      29.90R FOG
OWENSBORO      CLEAR     71  71 100 CALM      29.90R
HOPKINSVILLE   CLEAR     71  71 100 CALM      29.90R
BOWLING GREEN  CLEAR     72  68  87 CALM      29.90R
GLASGOW        CLEAR     68  68 100 CALM      29.91R
$$

KYZ024-025-028>034-038-045-046-053-130600-
NORTH CENTRAL KENTUCKY

CITY           SKY/WX    TMP DP  RH WIND       PRES   REMARKS
LOUISVILLE/SDF PTCLDY    75  65  70 CALM      29.90R
LOUISVILLE/LOU PTCLDY    70  65  84 CALM      29.90R
FORT KNOX      CLEAR     69  69 100 CALM      29.91S
$$

KYZ035>037-039>044-047>052-055>060-089>105-130600-
NORTHEAST KENTUCKY

CITY           SKY/WX    TMP DP  RH WIND       PRES   REMARKS
LEXINGTON      CLEAR     66  62  87 CALM      29.91R
COVINGTON      CLEAR     66  61  84 NW3       29.91R
FRANKFORT      CLEAR     67  63  87 CALM      29.90R
$$

KYZ054-064>069-076>088-106>120-130600-
SOUTHEAST KENTUCKY

CITY           SKY/WX    TMP DP  RH WIND       PRES   REMARKS
JACKSON        FOG       67  67 100 CALM      29.91R VSB 1/4
LONDON         PTCLDY    66  65  96 CALM      29.91R
SOMERSET       MOCLDY    66  63  88 CALM      29.92R
MIDDLESBORO    CLEAR     68  67  99 CALM      29.92R
MONTICELLO     CLOUDY    69  69 100 NW9       29.93R
$$




USA.gov is the U.S. government's official web portal to all federal, state and local government web resources and services.